This is the latest recevied weather packets stored in our database for station/object OK1CBR-13. If no packets are shown the sender has not sent any weather packets the latest 10 day(s).
| Time | Temp. | Humidity | Pressure | Rain* | Wind** | Luminosity | Snow |
|---|---|---|---|---|---|---|---|
| 1777862252 | 11.67° C | 62% | 1014.8 hPa | - | - | - | - |
| 1777861652 | 11.11° C | 62% | 1014.7 hPa | - | - | - | - |
| 1777861052 | 11.11° C | 63% | 1014.7 hPa | - | - | - | - |
| 1777860452 | 11.67° C | 62% | 1014.8 hPa | - | - | - | - |
| 1777859852 | 12.22° C | 59% | 1014.6 hPa | - | - | - | - |
| 1777859252 | 12.22° C | 60% | 1014.4 hPa | - | - | - | - |
| 1777858652 | 12.22° C | 60% | 1014.4 hPa | - | - | - | - |
| 1777858052 | 12.22° C | 60% | 1014.4 hPa | - | - | - | - |
| 1777857452 | 12.22° C | 60% | 1014.5 hPa | - | - | - | - |
| 1777856852 | 12.78° C | 58% | 1014.4 hPa | - | - | - | - |
| 1777856252 | 12.78° C | 57% | 1014.3 hPa | - | - | - | - |
| 1777855652 | 12.78° C | 57% | 1014.2 hPa | - | - | - | - |
| 1777855052 | 13.33° C | 56% | 1014.2 hPa | - | - | - | - |
| 1777854453 | 13.33° C | 56% | 1014.2 hPa | - | - | - | - |
| 1777853852 | 13.33° C | 56% | 1014.2 hPa | - | - | - | - |
| 1777853252 | 13.33° C | 56% | 1014.2 hPa | - | - | - | - |
| 1777852652 | 13.89° C | 55% | 1014.1 hPa | - | - | - | - |
| 1777852052 | 13.89° C | 55% | 1014.1 hPa | - | - | - | - |
| 1777851453 | 13.89° C | 55% | 1014.1 hPa | - | - | - | - |
| 1777850853 | 13.89° C | 55% | 1014.2 hPa | - | - | - | - |
| 1777850252 | 13.89° C | 54% | 1014.2 hPa | - | - | - | - |
| 1777849652 | 13.89° C | 54% | 1014.2 hPa | - | - | - | - |
| 1777849052 | 13.89° C | 54% | 1014.2 hPa | - | - | - | - |
| 1777848453 | 14.44° C | 54% | 1014.3 hPa | - | - | - | - |
| 1777847853 | 14.44° C | 53% | 1014.3 hPa | - | - | - | - |
* Rain since midnight (hover to see other rain measurements)
** Current wind speed in m/s (hover to see current wind gust speed)